Location: Cluj-Napoca
(46.7712°N, 23.6236°E)
Time: 04:34:44
(UTC+02:00)

ISS - Pass Details

Date: 21 January 2020
Orbit: 415 x 422 km, 51.6° (Epoch: 27 February)

Event Time Altitude Azimuth Distance (km) Brightness Sun altitude
Rises 18:29:07 0° 203° (SSW) 2,366 0.6 -13.1°
Reaches altitude 10° 18:31:36 10° 185° (S) 1,505 -0.7 -13.5°
Maximum altitude 18:34:06 19° 137° (SE) 1,059 -2.0 -13.9°
Enters shadow 18:34:47 18° 120° (ESE) 1,100 -2.1 -14.0°
